Orbital Elements at Epoch 2459000.5 (2020-May-31.0) TDB
Reference: JPL 10 (heliocentric ecliptic J2000)
Element | Value | Uncertainty (1-sigma) | Units |
e | .129138520731466 | 7.353e-08 | |
a | 2.734135465266335 | 2.3783e-08 | au |
q | 2.381053255802402 | 2.0156e-07 | au |
i | 2.247407827771417 | 5.8415e-06 | deg |
node | 256.7605112019123 | 0.00019878 | deg |
peri | 285.6159746480864 | 0.00019999 | deg |
M | 191.0541030216835 | 2.6126e-05 | deg |
tp | 2459775.449883813202 (2022-Jul-14.94988381) | 0.00012553 | TDB |
period | 1651.309461564247 4.52 | 2.1546e-05 5.899e-08 | d yr |
n | .2180088035461145 | 2.8445e-09 | deg/d |
Q | 3.087217674730268 | 2.6854e-08 | au |
|
| | Orbit Determination Parameters
Additional Information
|